Sheridan, WY

6:27 AM MST on February 12, 2016 (GMT -0700)
Sheridan County

Weather History for KSHR - April, 2013

Change the Weather History Date:

Sunday, April 7, 2013

  Actual Average Record
Temperature  
Mean Temperature 47 °F 41 °F  
Max Temperature 61 °F 55 °F 82 °F (1930)
Min Temperature 33 °F 28 °F 7 °F (1973)
Degree Days  
Heating Degree Days 18 24  
Month to date heating degree days 134 171  
Since 1 July heating degree days 6413 6630  
Cooling Degree Days 0 0  
Month to date cooling degree days 0 0  
Year to date cooling degree days 0 0  
Moisture  
Dew Point 34 °F    
Average Humidity 64    
Maximum Humidity 92    
Minimum Humidity 36    
Precipitation  
Precipitation 0.01 in 0.05 in 1.22 in (1925)
Month to date precipitation 0.18 0.28  
Year to date precipitation 2.20 2.36  
Sea Level Pressure  
Sea Level Pressure 29.66 in    
Wind  
Wind Speed 5 mph (South)    
Max Wind Speed 21 mph    
Max Gust Speed 24 mph    
Visibility 10 miles    
Events      
T = Trace of Precipitation, MM = Missing Value Source: NWS Daily Summary

Daily Weather History Graph

Daily Weather History Graph

Search for Another Location

Airport or City:

Trip Planner

Search our weather history database for the weather conditions in past years. The results will help you decide how hot, cold, wet, or windy it might be!

Date:

Astronomy

Apr. 07, 2013 Rise Set
Actual Time 6:37 AM MDT 7:43 PM MDT
Civil Twilight 6:07 AM MDT 8:13 PM MDT
Nautical Twilight 5:31 AM MDT 8:49 PM MDT
Astronomical Twilight 4:53 AM MDT 9:27 PM MDT
Moon 5:02 AM MDT (4/7) 5:13 PM MDT (4/7)
Length of Visible Light 14h 06m
Length of Day
13h 06m
Waning Crescent, 8% of the Moon is Illuminated
Apr 7
Waning Crescent
Apr 10
New
Apr 18
First Quarter
Apr 25
Full
May 2
Last Quarter

Hourly Weather History & Observations

Time (MDT) Temp. Windchill Dew Point Humidity Pressure Visibility Wind Dir Wind Speed Gust Speed Precip Events Conditions
12:53 AM 39.9 °F 36.7 °F 36.0 °F 86% 29.80 in 10.0 mi SSW 4.6 mph - N/A   Clear
1:53 AM 36.0 °F 31.1 °F 33.1 °F 89% 29.78 in 10.0 mi SSW 5.8 mph - N/A   Clear
2:53 AM 37.0 °F - 33.1 °F 86% 29.77 in 10.0 mi Calm Calm - N/A   Clear
3:53 AM 35.1 °F 31.0 °F 32.0 °F 89% 29.76 in 10.0 mi NNW 4.6 mph - N/A   Overcast
4:53 AM 36.0 °F - 32.0 °F 86% 29.77 in 10.0 mi Calm Calm - N/A   Mostly Cloudy
5:53 AM 36.0 °F 31.1 °F 32.0 °F 86% 29.77 in 10.0 mi WNW 5.8 mph - N/A   Partly Cloudy
6:53 AM 36.0 °F 32.1 °F 32.0 °F 86% 29.78 in 10.0 mi SSE 4.6 mph - N/A   Scattered Clouds
7:53 AM 37.0 °F 32.4 °F 34.0 °F 89% 29.79 in 10.0 mi South 5.8 mph - N/A   Partly Cloudy
8:53 AM 46.9 °F - 37.0 °F 68% 29.73 in 10.0 mi Calm Calm - N/A   Clear
9:53 AM 48.0 °F - 34.0 °F 58% 29.69 in 10.0 mi Calm Calm - N/A   Clear
10:53 AM 53.1 °F - 34.0 °F 48% 29.66 in 10.0 mi ESE 8.1 mph - N/A   Clear
11:53 AM 54.0 °F - 35.1 °F 49% 29.65 in 10.0 mi Variable 6.9 mph - N/A   Partly Cloudy
12:53 PM 55.9 °F - 33.1 °F 42% 29.62 in 10.0 mi Calm Calm - N/A   Scattered Clouds
1:53 PM 59.0 °F - 33.1 °F 38% 29.58 in 10.0 mi East 4.6 mph - N/A   Clear
2:53 PM 57.0 °F - 34.0 °F 42% 29.58 in 10.0 mi SE 8.1 mph 16.1 mph N/A   Overcast
3:53 PM 57.9 °F - 32.0 °F 37% 29.54 in 10.0 mi NE 4.6 mph - N/A   Clear
4:53 PM 60.1 °F - 33.1 °F 36% 29.52 in 10.0 mi NNE 9.2 mph - N/A   Clear
5:53 PM 57.9 °F - 30.0 °F 35% 29.53 in 10.0 mi Calm Calm - N/A   Clear
6:53 PM 54.0 °F - 30.9 °F 41% 29.56 in 10.0 mi NNW 15.0 mph 19.6 mph N/A   Overcast
7:53 PM 48.0 °F - 34.0 °F 58% 29.55 in 10.0 mi ENE 5.8 mph - N/A   Clear
8:53 PM 41.0 °F 37.1 °F 34.0 °F 76% 29.59 in 10.0 mi SSW 5.8 mph - N/A   Scattered Clouds
9:53 PM 42.1 °F 39.2 °F 36.0 °F 79% 29.60 in 10.0 mi WNW 4.6 mph - N/A   Overcast
10:53 PM 42.1 °F - 37.9 °F 85% 29.59 in 10.0 mi Calm Calm - 0.01 in   Mostly Cloudy
11:53 PM 39.0 °F 32.3 °F 37.0 °F 93% 29.60 in 10.0 mi WNW 10.4 mph - N/A   Partly Cloudy